Regional Weather Roundup
Issued by NWS

Home | Current Version | Previous Version | Text Only | Print | Product List | Glossary On
Versions: 1 2 3 4 5 6 7 8 9 10 11 12 13 14 15 16 17 18 19 20 21 22 23 24 25 26 27 28 29 30 31 32 33 34 35 36 37 38 39 40 41 42 43 44 45 46 47 48 49 50
000
ASUS43 KMPX 011910
RWRMN
WEATHER ROUNDUP FOR MINNESOTA
NATIONAL WEATHER SERVICE TWIN CITIES/CHANHASSEN MN
100 PM CST MON MAR 01 2021


NOTE: "FAIR" INDICATES FEW OR NO CLOUDS BELOW 12,000 FEET WITH NO
SIGNIFICANT WEATHER AND/OR OBSTRUCTIONS TO VISIBILITY. N/A MEANS
CURRENT SKY AND/OR WEATHER CONDITIONS ARE NOT AVAILABLE.

MNZ060>063-068>070-012000-
   Twin Cities Metro

CITY           SKY/WX    TMP DP  RH WIND       PRES   REMARKS
TWIN CITIES    SUNNY     22   2  42 CALM      30.39S
ST PAUL        SUNNY     21  -2  36 N8        30.41S WCI  11
CRYSTAL        SUNNY     20  -1  40 MISG      30.38F
BLAINE         SUNNY     19   0  42 NW6       30.39S WCI  11
LAKEVILLE      SUNNY     19   0  42 NE6       30.38S WCI  11
EDEN PRAIRIE   SUNNY     21   0  39 CALM      30.38S
SOUTH ST PAUL  SUNNY     20  -4  34 N6        30.40S WCI  12
$$
MNZ001>005-007-008-013>017-022>024-027-028-012000-
   Northwest Minnesota

CITY           SKY/WX    TMP DP  RH WIND       PRES   REMARKS
BEMIDJI        SUNNY     10 -10  40 CALM      30.33F
HALLOCK        SUNNY     10  -8  44 S13       30.35F WCI  -5
ROSEAU         MOSUNNY    9 -15  33 SW6       30.34F WCI  -1
WARROAD        MOSUNNY    5 -11  47 S7        30.34F WCI  -7
THIEF RVR FALL SUNNY     10  -5  50 S7        30.35F WCI  -1
CROOKSTON      MOSUNNY   10  -9  40 S8        30.37F WCI  -1
FOSSTON        SUNNY      5  -9  51 SW6       30.35F WCI  -6
DETROIT LAKES  SUNNY     10  -9  40 VRB3      30.35F
MOORHEAD       SUNNY     10 -11  37 S6        30.41F WCI   1
PARK RAPIDS    SUNNY     11  -9  40 CALM      30.34F
MAHNOMEN       FAIR      10  -5  51 SW6       30.35F WCI   0
$$
MNZ006-009>011-018-025>026-012000-
   North Central Minnesota

CITY           SKY/WX    TMP DP  RH WIND       PRES   REMARKS
BAUDETTE       MOSUNNY    5 -12  45 CALM      30.33F
FLAG ISLAND    MOSUNNY    0 -11  60 S17       30.32F WCI -21
INTL FALLS     MOSUNNY    7 -13  39 W6        30.33F WCI  -3
WASKISH          N/A      3 -11  51 SW6       30.35F WCI  -8
BIG FORK       SUNNY     10 -15  31 W3        30.37F
LONGVILLE      SUNNY      9 -15  33 NW5       30.37S WCI   0
GRAND RAPIDS   SUNNY      9  -9  44 CALM      30.37S
CRANE LAKE       N/A      7 -15  36 N3        30.35F
ORR            SUNNY      9 -18  28 NW5       30.29F WCI   0
COOK           SUNNY      9 -11  40 W6        30.31F WCI  -1
WALKER         CLEAR     12  -6  44 E5        30.35F WCI   4
$$
MNZ012-019>021-037-012000-
   Northeast Minnesota

CITY           SKY/WX    TMP DP  RH WIND       PRES   REMARKS
DULUTH         SUNNY     12 -12  33 NW9G17    30.31F WCI   0
ELY            MOSUNNY    9 -17  31 NW9       30.28F WCI  -5
HIBBING        SUNNY      9  -9  44 NW7       30.32F WCI  -2
EVELETH        SUNNY     10  -9  41 NW6       30.32F WCI   0
DULUTH HARBOR  SUNNY     12 -11  34 W8        30.41S WCI   1
TWO HARBORS    SUNNY     14 -13  29 W7        30.32F WCI   4
SILVER BAY     MOSUNNY   16 -15  24 W3        30.31S
GRAND MARAIS     N/A     18  -9  29 VRB7      30.32S WCI   9
G MARAIS ARPRT SUNNY     10 -18  26 NW8       30.19S WCI  -1
$$
MNZ029>031-032-039>041-046>048-054>057-064-012000-
   West Central Minnesota

CITY           SKY/WX    TMP DP  RH WIND       PRES   REMARKS
FERGUS FALLS   SUNNY      9  -2  61 SW3       30.36F
WHEATON        SUNNY     12   3  67 NE3       30.43F
MORRIS         SUNNY     16 -11  29 CALM      30.41F
ALEXANDRIA     SUNNY     17  -1  45 CALM      30.37F
ELBOW LAKE     FAIR      10  -1  59 CALM      30.40F
WADENA         SUNNY     10  -6  48 S3        30.35F
GLENWOOD       SUNNY     16   0  48 CALM      30.39S
APPLETON       SUNNY     16   1  53 CALM      30.42F
BENSON         SUNNY     16   1  53 CALM      30.43F
ORTONVILLE     SUNNY     16   3  57 CALM      30.40F
MADISON        SUNNY     18   5  57 CALM      30.43F
WILLMAR        FAIR      16   5  62 W7        30.44S WCI   6
$$
MNZ033>034-036-042>043-049>051-058-059-012000-
   Central Minnesota

CITY           SKY/WX    TMP DP  RH WIND       PRES   REMARKS
ST CLOUD       SUNNY     15  -5  40 NW5       30.40S WCI   8
SAUK CENTRE    CLOUDY    16  -3  42 CALM      30.39S
PAYNESVILLE    SUNNY     16   1  53 NW5       30.40S WCI   9
AITKIN         SUNNY     12 -11  34 CALM      30.37F
PINE RIVER     SUNNY     14  -6  41 CALM      30.38F
BRAINERD       SUNNY     15 -11  30 N3        30.37F
STAPLES        SUNNY     12  -2  52 W3        30.37F
LONG PRAIRIE   FAIR      16  -6  38 CALM      30.39S
LITTLE FALLS   SUNNY     16 -15  24 W3        30.39F
CAMP RIPLEY    FAIR      13 -10  35 NE5       30.39F WCI   6
LITCHFIELD       N/A     19   0  42 CALM      30.40F
BUFFALO        SUNNY     18  -1  43 MISG      30.41S
MAPLE LAKE       N/A     19   0  42 W3        30.41R
HUTCHINSON     SUNNY     18  -2  41 CALM      30.41F
$$
MNZ037-044-045-052-053-012000-
   East Central Minnesota

CITY           SKY/WX    TMP DP  RH WIND       PRES   REMARKS
PRINCETON      SUNNY     18  -9  29 CALM      30.40S
MORA           SUNNY     18  -8  32 CALM      30.40S
CAMBRIDGE      SUNNY     18   0  45 CALM      30.39F
RUSH CITY      SUNNY     15  -9  32 NW5       30.40S WCI   8
MOOSE LAKE     SUNNY     16  -9  32 CALM      30.35F
HINCKLEY       CLEAR     18  -9  29 CALM      30.38S
CLOQUET        SUNNY     10 -15  31 N3        30.32F
MCGREGOR       SUNNY     14  -9  34 NW3       30.36F
$$
MNZ071>073-080-081-089-090-097-098-012000-
   Southwest Minnesota

CITY           SKY/WX    TMP DP  RH WIND       PRES   REMARKS
MONTEVIDEO     SUNNY     12   1  62 CALM      30.43F
GRANITE FALLS  SUNNY     18   8  65 W3        30.44F
CANBY          SUNNY     16   6  63 CALM      30.42F
MARSHALL       SUNNY     18   8  65 NW5       30.42S WCI  11
REDWOOD FALLS  SUNNY     19   6  57 CALM      30.42R
OLIVIA         SUNNY     14   7  73 CALM      30.42S
PIPESTONE        N/A     18  12  79 CALM      30.37R
WINDOM         MOSUNNY   19  12  73 NW6       30.37S WCI  11
WORTHINGTON    MOSUNNY   27  16  63 NE3       30.38R
JACKSON        MOSUNNY   23  14  68 N5        30.37S WCI  17
TRACY          SUNNY     16   8  70 N6        30.40R WCI   7
SLAYTON        SUNNY     17   9  72 N5        30.39R WCI   9
$$
MNZ065>067-074>077-082>085-091>093-012000-
   South Central Minnesota

CITY           SKY/WX    TMP DP  RH WIND       PRES   REMARKS
MANKATO        SUNNY     23  12  62 N6        30.40R WCI  16
NEW ULM        SUNNY     18   5  57 N3        30.41R
ST JAMES       SUNNY     19  10  68 N7        30.40R WCI  10
FAIRMONT       MOSUNNY   25  15  66 N8        30.39R WCI  16
GLENCOE        SUNNY     15   3  59 N3        30.40S
FARIBAULT      SUNNY     19   3  49 CALM      30.38S
OWATONNA       SUNNY     19   7  58 NW6       30.36S WCI  11
WASECA         SUNNY     19   7  58 N3        30.39R
ALBERT LEA     SUNNY     19  10  68 N7        30.36S WCI  10
$$
MNZ078>079-086>088-094>096-012000-
   Southeast Minnesota

CITY           SKY/WX    TMP DP  RH WIND       PRES   REMARKS
ROCHESTER      SUNNY     20   8  60 NW9       30.33F WCI   9
RED WING       SUNNY     21   1  42 N6        30.38S WCI  14
STANTON        SUNNY     20   4  51 NE3       30.38S
DODGE CENTER   SUNNY     18   7  62 N7        30.35R WCI   8
WINONA         SUNNY     27  10  50 NW6       30.37F WCI  20
AUSTIN         SUNNY     19   9  63 N8        30.35F WCI   9
PRESTON        SUNNY     19   5  54 NW8       30.33F WCI   9
$$
ABBREVIATIONS USED IN REMARKS
   TC - TEMPERATURES IN CELSIUS
  WCI - WIND CHILL INDEX
   HX - HEAT INDEX
  VSB - VISIBILITY
$$




USA.gov is the U.S. government's official web portal to all federal, state and local government web resources and services.